,,,PA_Meas_PMT16A,,PR_Meas_QMR101_102,,RH_Meas_QMH101,,SR_Meas_QMS101,,TA_Meas_QMH101,,GenWind,,GenWind,
date,time,status,PA,status,PR,status,RH,status,SR,status,TA,status,DirAvg,status,SpdAvg,
2012-12-31, 00:00:04,VALID,1008.34,VALID,0,VALID,104,VALID,0,VALID,23.8304,VALID,74,VALID,1.22969,
2012-12-31, 00:01:04,VALID,1008.29,VALID,0,VALID,104,VALID,0,VALID,23.8499,VALID,93,VALID,1.21836,
2012-12-31, 00:02:04,VALID,1008.27,VALID,0,VALID,104,VALID,0,VALID,23.9084,VALID,85,VALID,0.648828,
2012-12-31, 00:03:04,VALID,1008.25,VALID,0,VALID,104,VALID,0,VALID,23.9473,VALID,103,VALID,1.10859,
2012-12-31, 00:04:04,VALID,1008.21,VALID,0,VALID,104,VALID,0,VALID,23.8499,VALID,105,VALID,0.846875,
2012-12-31, 00:05:04,VALID,1008.19,VALID,0,VALID,104,VALID,0,VALID,23.9084,VALID,97,VALID,1.29297,
2012-12-31, 00:06:04,VALID,1008.13,VALID,0,VALID,104,VALID,0,VALID,23.9084,VALID,123,VALID,0.948438,
2012-12-31, 00:07:04,VALID,1008.11,VALID,0,VALID,104,VALID,0,VALID,23.8694,VALID,107,VALID,1.29961,
2012-12-31, 00:08:04,VALID,1008.09,VALID,0,VALID,104,VALID,0,VALID,23.8694,VALID,102,VALID,1.21172,
2012-12-31, 00:09:04,VALID,1008.06,VALID,0,VALID,104,VALID,0,VALID,23.8889,VALID,102,VALID,1.56328,
2012-12-31, 00:10:04,VALID,1008.1,VALID,0,VALID,104,VALID,0,VALID,23.8304,VALID,88,VALID,0.685938,
2012-12-31, 00:11:04,VALID,1008.05,VALID,0,VALID,104,VALID,0,VALID,23.8676,VALID,98,VALID,1.16133,
2012-12-31, 00:12:04,VALID,1008.04,VALID,0,VALID,104,VALID,0,VALID,23.8286,VALID,130,VALID,1.15977,
2012-12-31, 00:13:04,VALID,1008.02,VALID,0.5,VALID,104,VALID,0,VALID,23.8304,VALID,119,VALID,1.06719,
2012-12-31, 00:14:04,VALID,1008.01,VALID,0,VALID,104,VALID,0,VALID,23.8499,VALID,134,VALID,0.892969,
2012-12-31, 00:15:04,VALID,1007.99,VALID,0,VALID,104,VALID,0,VALID,23.8676,VALID,108,VALID,1.39492,
2012-12-31, 00:16:04,VALID,1007.95,VALID,0,VALID,104,VALID,0,VALID,23.8889,VALID,111,VALID,1.41836,
2012-12-31, 00:17:04,VALID,1007.97,VALID,0,VALID,104,VALID,0,VALID,23.8304,VALID,101,VALID,0.865234,
2012-12-31, 00:18:04,VALID,1007.92,VALID,0,VALID,104,VALID,0,VALID,23.8694,VALID,98,VALID,0.976172,
2012-12-31, 00:19:04,VALID,1007.9,VALID,0,VALID,104,VALID,0,VALID,23.8304,VALID,87,VALID,1.14141,
2012-12-31, 00:20:04,VALID,1007.89,VALID,0,VALID,104,VALID,0,VALID,23.8304,VALID,83,VALID,0.887891,
2012-12-31, 00:21:04,VALID,1007.86,VALID,0,VALID,104,VALID,0,VALID,23.7914,VALID,93,VALID,1.51055,
2012-12-31, 00:22:04,VALID,1007.87,VALID,0,VALID,104,VALID,0,VALID,23.7914,VALID,111,VALID,1.29414,
2012-12-31, 00:23:04,VALID,1007.87,VALID,0,VALID,104,VALID,0,VALID,23.7914,VALID,122,VALID,1.03984,
2012-12-31, 00:24:04,VALID,1007.85,VALID,0,VALID,104,VALID,0,VALID,23.8286,VALID,121,VALID,1.37383,
2012-12-31, 00:25:04,VALID,1007.84,VALID,0,VALID,104,VALID,0,VALID,23.8694,VALID,125,VALID,1.24492,
2012-12-31, 00:26:04,VALID,1007.82,VALID,0,VALID,104,VALID,0,VALID,23.8286,VALID,126,VALID,1.00469,
2012-12-31, 00:27:04,VALID,1007.81,VALID,0,VALID,104,VALID,0,VALID,23.8304,VALID,116,VALID,0.702734,
2012-12-31, 00:28:04,VALID,1007.77,VALID,0,VALID,104,VALID,0,VALID,23.8109,VALID,103,VALID,1.24414,
2012-12-31, 00:29:04,VALID,1007.75,VALID,0,VALID,104,VALID,0,VALID,23.7914,VALID,99,VALID,1.41016,
2012-12-31, 00:30:04,VALID,1007.74,VALID,0,VALID,104,VALID,0,VALID,23.7914,VALID,99,VALID,1.16641,
2012-12-31, 00:31:04,VALID,1007.74,VALID,0,VALID,104,VALID,0,VALID,23.7914,VALID,91,VALID,1.09766,
2012-12-31, 00:32:04,VALID,1007.74,VALID,0,VALID,104,VALID,0,VALID,23.8304,VALID,111,VALID,1.23555,
2012-12-31, 00:33:04,VALID,1007.74,VALID,0,VALID,104,VALID,0,VALID,23.8304,VALID,96,VALID,1.24922,
2012-12-31, 00:34:04,VALID,1007.71,VALID,0,VALID,104,VALID,0,VALID,23.8481,VALID,98,VALID,0.817578,
2012-12-31, 00:35:04,VALID,1007.7,VALID,0,VALID,104,VALID,0,VALID,23.8091,VALID,103,VALID,1.20625,
2012-12-31, 00:36:04,VALID,1007.67,VALID,0,VALID,104,VALID,0,VALID,23.7701,VALID,108,VALID,1.40664,
2012-12-31, 00:37:04,VALID,1007.66,VALID,0,VALID,104,VALID,0.112112,VALID,23.772,VALID,68,VALID,0.834766,
2012-12-31, 00:38:04,VALID,1007.66,VALID,0,VALID,104,VALID,0,VALID,23.8481,VALID,105,VALID,0.744531,
2012-12-31, 00:39:04,VALID,1007.65,VALID,0,VALID,104,VALID,0,VALID,23.8304,VALID,102,VALID,1.30273,
2012-12-31, 00:40:04,VALID,1007.65,VALID,0,VALID,104,VALID,0,VALID,23.8109,VALID,101,VALID,1.05625,
2012-12-31, 00:41:04,VALID,1007.64,VALID,0,VALID,104,VALID,0,VALID,23.9473,VALID,91,VALID,0.716406,
2012-12-31, 00:42:04,VALID,1007.68,VALID,0,VALID,104,VALID,0,VALID,23.7525,VALID,86,VALID,0.473047,
2012-12-31, 00:43:04,VALID,1007.66,VALID,0,VALID,104,VALID,0,VALID,23.8304,VALID,84,VALID,0.856641,
2012-12-31, 00:44:05,VALID,1007.63,VALID,0,VALID,104,VALID,0,VALID,23.8481,VALID,55,VALID,1.35898,
2012-12-31, 00:45:05,VALID,1007.64,VALID,0,VALID,104,VALID,0,VALID,23.8109,VALID,86,VALID,1.32305,
2012-12-31, 00:46:05,VALID,1007.65,VALID,0,VALID,104,VALID,0,VALID,23.8109,VALID,86,VALID,0.771875,
2012-12-31, 00:47:05,VALID,1007.68,VALID,0,VALID,104,VALID,0,VALID,23.7914,VALID,55,VALID,0.516406,
2012-12-31, 00:48:05,VALID,1007.63,VALID,0,VALID,104,VALID,0,VALID,23.7507,VALID,41,VALID,1.02227,
2012-12-31, 00:49:05,VALID,1007.67,VALID,0,VALID,104,VALID,0,VALID,23.7525,VALID,57,VALID,0.835547,
2012-12-31, 00:50:05,VALID,1007.66,VALID,0,VALID,104,VALID,0,VALID,23.772,VALID,86,VALID,1.06445,
2012-12-31, 00:51:05,VALID,1007.69,VALID,0,VALID,104,VALID,0,VALID,23.7312,VALID,102,VALID,0.652344,
2012-12-31, 00:52:05,VALID,1007.7,VALID,0,VALID,104,VALID,0,VALID,23.7525,VALID,83,VALID,0.669531,
2012-12-31, 00:53:05,VALID,1007.73,VALID,0,VALID,104,VALID,0,VALID,23.7914,VALID,83,VALID,0.870313,
2012-12-31, 00:54:05,VALID,1007.76,VALID,0,VALID,104,VALID,0,VALID,23.733,VALID,74,VALID,1.1668,
2012-12-31, 00:55:05,VALID,1007.78,VALID,0,VALID,104,VALID,0,VALID,23.7525,VALID,84,VALID,0.677344,
2012-12-31, 00:56:05,VALID,1007.77,VALID,0,VALID,104,VALID,0,VALID,23.7896,VALID,80,VALID,0.296484,
2012-12-31, 00:57:05,VALID,1007.78,VALID,0,VALID,104,VALID,0,VALID,23.7507,VALID,80,VALID,0.0457031,
2012-12-31, 00:58:05,VALID,1007.83,VALID,0,VALID,104,VALID,0,VALID,23.8499,VALID,81,VALID,0.658594,
2012-12-31, 00:59:05,VALID,1007.83,VALID,0,VALID,104,VALID,0,VALID,23.8304,VALID,91,VALID,0.632422,
2012-12-31, 01:00:05,VALID,1007.87,VALID,0,VALID,104,VALID,0,VALID,23.8304,VALID,107,VALID,0.903906,
2012-12-31, 01:01:05,VALID,1007.9,VALID,0,VALID,104,VALID,0,VALID,23.8304,VALID,103,VALID,1.20352,
2012-12-31, 01:02:05,VALID,1007.92,VALID,0,VALID,104,VALID,0,VALID,23.7914,VALID,110,VALID,0.869922,
2012-12-31, 01:03:05,VALID,1007.95,VALID,0,VALID,104,VALID,0,VALID,23.8499,VALID,108,VALID,0.492188,
2012-12-31, 01:04:05,VALID,1007.98,VALID,0,VALID,104,VALID,0,VALID,23.8499,VALID,140,VALID,0.914063,
2012-12-31, 01:05:05,VALID,1007.97,VALID,0,VALID,104,VALID,0.112112,VALID,23.7914,VALID,173,VALID,1.05781,
2012-12-31, 01:06:05,VALID,1008.04,VALID,0,VALID,104,VALID,0.112112,VALID,23.8499,VALID,156,VALID,0.696484,
2012-12-31, 01:07:05,VALID,1008.01,VALID,0,VALID,104,VALID,0,VALID,23.8304,VALID,151,VALID,0.879297,
2012-12-31, 01:08:05,VALID,1008.03,VALID,0,VALID,104,VALID,0,VALID,23.7914,VALID,164,VALID,1.31758,
2012-12-31, 01:09:05,VALID,1008.03,VALID,0,VALID,104,VALID,0,VALID,23.772,VALID,158,VALID,1.03477,
2012-12-31, 01:10:05,VALID,1008.02,VALID,0,VALID,104,VALID,0,VALID,23.7525,VALID,156,VALID,1.13516,
2012-12-31, 01:11:05,VALID,1008.05,VALID,0,VALID,104,VALID,0,VALID,23.8109,VALID,149,VALID,1.00156,
2012-12-31, 01:12:05,VALID,1008.08,VALID,0.5,VALID,104,VALID,0,VALID,23.772,VALID,186,VALID,1.41602,
2012-12-31, 01:13:05,VALID,1008.09,VALID,0,VALID,104,VALID,0,VALID,23.8109,VALID,170,VALID,0.694922,
2012-12-31, 01:14:05,VALID,1008.07,VALID,0,VALID,104,VALID,0,VALID,23.8109,VALID,153,VALID,0.648438,
2012-12-31, 01:15:05,VALID,1008.12,VALID,0,VALID,104,VALID,0,VALID,23.7914,VALID,149,VALID,0.794922,
2012-12-31, 01:16:05,VALID,1008.15,VALID,0,VALID,104,VALID,0,VALID,23.7896,VALID,130,VALID,1.09336,
2012-12-31, 01:17:05,VALID,1008.18,VALID,0,VALID,104,VALID,0,VALID,23.7525,VALID,152,VALID,1.2582,
2012-12-31, 01:18:05,VALID,1008.17,VALID,0,VALID,104,VALID,0,VALID,23.772,VALID,143,VALID,1.05039,
2012-12-31, 01:19:05,VALID,1008.22,VALID,0,VALID,104,VALID,0,VALID,23.8109,VALID,114,VALID,1.19687,
2012-12-31, 01:20:05,VALID,1008.24,VALID,0,VALID,104,VALID,0,VALID,23.7914,VALID,161,VALID,0.607813,
2012-12-31, 01:21:05,VALID,1008.2,VALID,0,VALID,104,VALID,0,VALID,23.7914,VALID,165,VALID,0.598047,
2012-12-31, 01:22:05,VALID,1008.2,VALID,0,VALID,104,VALID,0,VALID,23.7896,VALID,166,VALID,0.626172,
2012-12-31, 01:23:05,VALID,1008.22,VALID,0,VALID,104,VALID,0,VALID,23.772,VALID,158,VALID,0.646875,
2012-12-31, 01:24:05,VALID,1008.21,VALID,0,VALID,104,VALID,0,VALID,23.7914,VALID,149,VALID,0.873438,
2012-12-31, 01:25:05,VALID,1008.21,VALID,0,VALID,104,VALID,0,VALID,23.7914,VALID,145,VALID,0.548828,
2012-12-31, 01:26:05,VALID,1008.19,VALID,0,VALID,104,VALID,0,VALID,23.8109,VALID,119,VALID,0.504297,
2012-12-31, 01:27:05,VALID,1008.2,VALID,0,VALID,104,VALID,0,VALID,23.8304,VALID,114,VALID,0.879297,
2012-12-31, 01:28:05,VALID,1008.17,VALID,0,VALID,104,VALID,0,VALID,23.8109,VALID,111,VALID,0.898828,
2012-12-31, 01:29:05,VALID,1008.19,VALID,0,VALID,104,VALID,0,VALID,23.8499,VALID,112,VALID,0.528125,
2012-12-31, 01:30:05,VALID,1008.19,VALID,0,VALID,104,VALID,0,VALID,23.7914,VALID,162,VALID,0.496875,
2012-12-31, 01:31:05,VALID,1008.15,VALID,0,VALID,104,VALID,0,VALID,23.8304,VALID,167,VALID,0.808984,
2012-12-31, 01:32:05,VALID,1008.18,VALID,0,VALID,104,VALID,0,VALID,23.8091,VALID,174,VALID,0.525781,
2012-12-31, 01:33:05,VALID,1008.18,VALID,0,VALID,104,VALID,0,VALID,23.8091,VALID,178,VALID,0.970703,
2012-12-31, 01:34:05,VALID,1008.15,VALID,0,VALID,104,VALID,0,VALID,23.8109,VALID,195,VALID,0.886719,
2012-12-31, 01:35:05,VALID,1008.16,VALID,0,VALID,104,VALID,0,VALID,23.8304,VALID,202,VALID,0.830469,
2012-12-31, 01:36:05,VALID,1008.15,VALID,0,VALID,104,VALID,0,VALID,23.7914,VALID,190,VALID,0.678125,
2012-12-31, 01:37:05,VALID,1008.14,VALID,0,VALID,104,VALID,0,VALID,23.8286,VALID,194,VALID,0.532812,
2012-12-31, 01:38:05,VALID,1008.13,VALID,0,VALID,104,VALID,0,VALID,23.8109,VALID,205,VALID,1.4418,
2012-12-31, 01:39:05,VALID,1008.13,VALID,0,VALID,104,VALID,0,VALID,23.7701,VALID,199,VALID,0.801172,
2012-12-31, 01:40:05,VALID,1008.11,VALID,0,VALID,104,VALID,0,VALID,23.7896,VALID,182,VALID,0.974609,
2012-12-31, 01:41:05,VALID,1008.1,VALID,0,VALID,104,VALID,0,VALID,23.7914,VALID,151,VALID,1.22383,
2012-12-31, 01:42:05,VALID,1008.1,VALID,0,VALID,104,VALID,0,VALID,23.8304,VALID,170,VALID,0.811719,
2012-12-31, 01:43:05,VALID,1008.11,VALID,0,VALID,104,VALID,0,VALID,23.8304,VALID,160,VALID,0.593359,
2012-12-31, 01:44:05,VALID,1008.09,VALID,0,VALID,104,VALID,0,VALID,23.8499,VALID,155,VALID,0.810156,
2012-12-31, 01:45:05,VALID,1008.1,VALID,0,VALID,104,VALID,0,VALID,23.8304,VALID,154,VALID,0.546484,
2012-12-31, 01:46:05,VALID,1008.1,VALID,0,VALID,104,VALID,0,VALID,23.8304,VALID,170,VALID,0.728516,
2012-12-31, 01:47:05,VALID,1008.06,VALID,0,VALID,104,VALID,0,VALID,23.8304,VALID,170,VALID,0.453516,
2012-12-31, 01:48:05,VALID,1008.08,VALID,0,VALID,104,VALID,0,VALID,23.8091,VALID,204,VALID,0.890625,
2012-12-31, 01:49:05,VALID,1008.07,VALID,0,VALID,104,VALID,0,VALID,23.8499,VALID,138,VALID,1.17148,
2012-12-31, 01:50:05,VALID,1008.06,VALID,0,VALID,104,VALID,0,VALID,23.7701,VALID,164,VALID,0.757422,
2012-12-31, 01:51:05,VALID,1008.04,VALID,0,VALID,104,VALID,0,VALID,23.8109,VALID,162,VALID,0.802344,
2012-12-31, 01:52:05,VALID,1008.02,VALID,0,VALID,104,VALID,0,VALID,23.8109,VALID,161,VALID,0.617188,
2012-12-31, 01:53:05,VALID,1008.04,VALID,0,VALID,104,VALID,0,VALID,23.8304,VALID,168,VALID,0.462891,
2012-12-31, 01:54:05,VALID,1008.01,VALID,0,VALID,104,VALID,0,VALID,23.8304,VALID,154,VALID,0.605859,
2012-12-31, 01:55:05,VALID,1008,VALID,0,VALID,104,VALID,0,VALID,23.8304,VALID,147,VALID,0.931641,
2012-12-31, 01:56:05,VALID,1008,VALID,0,VALID,104,VALID,0.112112,VALID,23.8109,VALID,158,VALID,0.481641,
2012-12-31, 01:57:05,VALID,1007.98,VALID,0,VALID,104,VALID,0,VALID,23.8304,VALID,158,VALID,0.574219,
2012-12-31, 01:58:05,VALID,1007.96,VALID,0,VALID,104,VALID,0,VALID,23.8304,VALID,183,VALID,0.632422,
2012-12-31, 01:59:05,VALID,1007.94,VALID,0,VALID,104,VALID,0,VALID,23.8109,VALID,179,VALID,0.742188,
2012-12-31, 02:00:05,VALID,1007.93,VALID,0,VALID,104,VALID,0,VALID,23.8304,VALID,146,VALID,0.588672,
2012-12-31, 02:01:05,VALID,1007.91,VALID,0,VALID,104,VALID,0,VALID,23.8109,VALID,168,VALID,0.960547,
2012-12-31, 02:02:05,VALID,1007.91,VALID,0,VALID,104,VALID,0,VALID,23.8304,VALID,161,VALID,0.550391,
2012-12-31, 02:03:05,VALID,1007.88,VALID,0,VALID,104,VALID,0,VALID,23.7896,VALID,173,VALID,1.09414,
2012-12-31, 02:04:05,VALID,1007.87,VALID,0,VALID,104,VALID,0,VALID,23.8109,VALID,160,VALID,0.964453,
2012-12-31, 02:05:05,VALID,1007.82,VALID,0,VALID,104,VALID,0,VALID,23.8286,VALID,143,VALID,0.991016,
2012-12-31, 02:06:05,VALID,1007.84,VALID,0,VALID,104,VALID,0,VALID,23.8109,VALID,166,VALID,0.887109,
2012-12-31, 02:07:05,VALID,1007.84,VALID,0,VALID,104,VALID,0,VALID,23.7914,VALID,163,VALID,0.971094,
2012-12-31, 02:08:05,VALID,1007.87,VALID,0,VALID,104,VALID,0,VALID,23.8109,VALID,159,VALID,0.591406,
2012-12-31, 02:09:05,VALID,1007.84,VALID,0,VALID,104,VALID,0,VALID,23.8499,VALID,139,VALID,0.690234,
2012-12-31, 02:10:05,VALID,1007.83,VALID,0,VALID,104,VALID,0,VALID,23.7896,VALID,122,VALID,1.50937,
2012-12-31, 02:11:05,VALID,1007.84,VALID,0,VALID,104,VALID,0,VALID,23.7701,VALID,138,VALID,1.37812,
2012-12-31, 02:12:05,VALID,1007.83,VALID,0,VALID,104,VALID,0,VALID,23.7914,VALID,146,VALID,1.12266,
2012-12-31, 02:13:05,VALID,1007.81,VALID,0,VALID,104,VALID,0,VALID,23.8109,VALID,132,VALID,0.914063,
2012-12-31, 02:14:05,VALID,1007.79,VALID,0,VALID,104,VALID,0,VALID,23.8109,VALID,124,VALID,0.772656,
2012-12-31, 02:15:05,VALID,1007.76,VALID,0,VALID,104,VALID,0,VALID,23.772,VALID,127,VALID,0.945703,
2012-12-31, 02:16:05,VALID,1007.77,VALID,0,VALID,104,VALID,0,VALID,23.8499,VALID,139,VALID,0.953516,
2012-12-31, 02:17:05,VALID,1007.75,VALID,0,VALID,104,VALID,0,VALID,23.7914,VALID,127,VALID,0.977734,
2012-12-31, 02:18:05,VALID,1007.72,VALID,0,VALID,104,VALID,0,VALID,23.8304,VALID,130,VALID,1.41172,
2012-12-31, 02:19:05,VALID,1007.71,VALID,0,VALID,104,VALID,0,VALID,23.8109,VALID,149,VALID,0.576172,
2012-12-31, 02:20:05,VALID,1007.72,VALID,0,VALID,104,VALID,0,VALID,23.772,VALID,170,VALID,1.59219,
2012-12-31, 02:21:05,VALID,1007.73,VALID,0,VALID,104,VALID,0,VALID,23.8304,VALID,133,VALID,1.12227,
2012-12-31, 02:22:05,VALID,1007.76,VALID,0,VALID,104,VALID,0,VALID,23.8109,VALID,133,VALID,0.763672,
2012-12-31, 02:23:05,VALID,1007.75,VALID,0,VALID,104,VALID,0,VALID,23.7914,VALID,121,VALID,1.20859,
2012-12-31, 02:24:05,VALID,1007.75,VALID,0,VALID,104,VALID,0,VALID,23.7914,VALID,142,VALID,0.652734,
2012-12-31, 02:25:05,VALID,1007.78,VALID,0,VALID,104,VALID,0,VALID,23.8109,VALID,141,VALID,0.881641,
2012-12-31, 02:26:05,VALID,1007.77,VALID,0,VALID,104,VALID,0,VALID,23.8109,VALID,131,VALID,1.16719,
2012-12-31, 02:27:05,VALID,1007.73,VALID,0,VALID,104,VALID,0,VALID,23.8109,VALID,140,VALID,1.2957,
2012-12-31, 02:28:05,VALID,1007.73,VALID,0,VALID,104,VALID,0,VALID,23.8109,VALID,150,VALID,0.579687,
2012-12-31, 02:29:05,VALID,1007.72,VALID,0,VALID,104,VALID,0,VALID,23.7914,VALID,117,VALID,0.706641,
2012-12-31, 02:30:05,VALID,1007.71,VALID,0,VALID,104,VALID,0,VALID,23.8109,VALID,135,VALID,0.598828,
2012-12-31, 02:31:05,VALID,1007.67,VALID,0,VALID,104,VALID,0,VALID,23.8109,VALID,132,VALID,1.38398,
2012-12-31, 02:32:05,VALID,1007.68,VALID,0,VALID,104,VALID,0.112112,VALID,23.7914,VALID,131,VALID,1.05547,
2012-12-31, 02:33:05,VALID,1007.68,VALID,0,VALID,104,VALID,0,VALID,23.7914,VALID,140,VALID,1.05781,
2012-12-31, 02:34:05,VALID,1007.66,VALID,0,VALID,104,VALID,0,VALID,23.7507,VALID,157,VALID,1.38789,
2012-12-31, 02:35:05,VALID,1007.68,VALID,0,VALID,104,VALID,0,VALID,23.7896,VALID,152,VALID,1.32227,
2012-12-31, 02:36:05,VALID,1007.65,VALID,0,VALID,104,VALID,0,VALID,23.7701,VALID,125,VALID,1.17461,
2012-12-31, 02:37:05,VALID,1007.61,VALID,0,VALID,104,VALID,0,VALID,23.8109,VALID,131,VALID,0.838281,
2012-12-31, 02:38:05,VALID,1007.62,VALID,0,VALID,104,VALID,0,VALID,23.8109,VALID,116,VALID,1.07617,
2012-12-31, 02:39:05,VALID,1007.62,VALID,0,VALID,104,VALID,0,VALID,23.8109,VALID,144,VALID,1.07187,
2012-12-31, 02:40:05,VALID,1007.59,VALID,0,VALID,104,VALID,0,VALID,23.8109,VALID,139,VALID,0.914453,
2012-12-31, 02:41:05,VALID,1007.59,VALID,0,VALID,104,VALID,0,VALID,23.8109,VALID,146,VALID,0.792578,
2012-12-31, 02:42:05,VALID,1007.58,VALID,0,VALID,104,VALID,0,VALID,23.7507,VALID,150,VALID,1.21289,
2012-12-31, 02:43:05,VALID,1007.58,VALID,0,VALID,104,VALID,0,VALID,23.772,VALID,153,VALID,1.31641,
2012-12-31, 02:44:05,VALID,1007.58,VALID,0,VALID,104,VALID,0,VALID,23.7914,VALID,161,VALID,1.07422,
2012-12-31, 02:45:05,VALID,1007.59,VALID,0,VALID,104,VALID,0,VALID,23.772,VALID,125,VALID,0.630078,
2012-12-31, 02:46:05,VALID,1007.58,VALID,0,VALID,104,VALID,0,VALID,23.7525,VALID,118,VALID,1.35938,
2012-12-31, 02:47:05,VALID,1007.59,VALID,0,VALID,104,VALID,0,VALID,23.8127,VALID,124,VALID,1.3625,
2012-12-31, 02:48:05,VALID,1007.58,VALID,0,VALID,104,VALID,0,VALID,23.7525,VALID,136,VALID,1.5332,
2012-12-31, 02:49:05,VALID,1007.56,VALID,0,VALID,104,VALID,0,VALID,23.7914,VALID,152,VALID,1.12734,
2012-12-31, 02:50:05,VALID,1007.56,VALID,0,VALID,104,VALID,0,VALID,23.7525,VALID,150,VALID,1.54531,
2012-12-31, 02:51:05,VALID,1007.56,VALID,0,VALID,104,VALID,0,VALID,23.772,VALID,157,VALID,1.19297,
2012-12-31, 02:52:05,VALID,1007.57,VALID,0,VALID,104,VALID,0,VALID,23.7932,VALID,146,VALID,0.777734,
2012-12-31, 02:53:05,VALID,1007.53,VALID,0,VALID,104,VALID,0,VALID,23.7914,VALID,139,VALID,0.616797,
2012-12-31, 02:54:05,VALID,1007.52,VALID,0,VALID,104,VALID,0,VALID,23.7525,VALID,139,VALID,0.587891,
2012-12-31, 02:55:05,VALID,1007.54,VALID,0,VALID,104,VALID,0,VALID,23.7914,VALID,112,VALID,0.900391,
2012-12-31, 02:56:05,VALID,1007.53,VALID,0,VALID,104,VALID,0,VALID,23.7914,VALID,114,VALID,0.370703,
2012-12-31, 02:57:05,VALID,1007.54,VALID,0,VALID,104,VALID,0,VALID,23.7701,VALID,114,VALID,0.653125,
2012-12-31, 02:58:05,VALID,1007.54,VALID,0,VALID,104,VALID,0,VALID,23.772,VALID,106,VALID,0.728906,
2012-12-31, 02:59:05,VALID,1007.54,VALID,0,VALID,104,VALID,0,VALID,23.772,VALID,106,VALID,0.678516,
2012-12-31, 03:00:05,VALID,1007.55,VALID,0,VALID,104,VALID,0.112112,VALID,23.772,VALID,106,VALID,0.523438,
2012-12-31, 03:01:05,VALID,1007.55,VALID,0,VALID,104,VALID,0,VALID,23.7525,VALID,96,VALID,0.912109,
2012-12-31, 03:02:05,VALID,1007.51,VALID,0,VALID,104,VALID,0,VALID,23.7525,VALID,137,VALID,1.65937,
2012-12-31, 03:03:05,VALID,1007.52,VALID,0,VALID,104,VALID,0,VALID,23.733,VALID,136,VALID,0.978516,
2012-12-31, 03:04:05,VALID,1007.47,VALID,0,VALID,104,VALID,0,VALID,23.7135,VALID,128,VALID,0.837891,
2012-12-31, 03:05:05,VALID,1007.44,VALID,0,VALID,104,VALID,0,VALID,23.7525,VALID,137,VALID,0.823047,
2012-12-31, 03:06:05,VALID,1007.41,VALID,0,VALID,104,VALID,0,VALID,23.694,VALID,144,VALID,0.702344,
2012-12-31, 03:07:05,VALID,1007.41,VALID,0,VALID,104,VALID,0,VALID,23.694,VALID,139,VALID,1.2918,
2012-12-31, 03:08:05,VALID,1007.41,VALID,0,VALID,104,VALID,0,VALID,23.5966,VALID,128,VALID,1.15469,
2012-12-31, 03:09:05,VALID,1007.42,VALID,0,VALID,104,VALID,0,VALID,23.6745,VALID,129,VALID,0.619531,
2012-12-31, 03:10:05,VALID,1007.44,VALID,0,VALID,104,VALID,0,VALID,23.694,VALID,127,VALID,0.457422,
2012-12-31, 03:11:05,VALID,1007.43,VALID,0,VALID,104,VALID,0,VALID,23.6745,VALID,109,VALID,0.955469,
2012-12-31, 03:12:05,VALID,1007.44,VALID,0,VALID,104,VALID,0,VALID,23.6745,VALID,99,VALID,0.842188,
2012-12-31, 03:13:05,VALID,1007.44,VALID,0,VALID,104,VALID,0,VALID,23.7153,VALID,97,VALID,0.886328,
2012-12-31, 03:14:05,VALID,1007.44,VALID,0,VALID,104,VALID,0,VALID,23.6745,VALID,87,VALID,1.14766,
2012-12-31, 03:15:05,VALID,1007.43,VALID,0,VALID,104,VALID,0,VALID,23.6763,VALID,97,VALID,0.442969,
2012-12-31, 03:16:05,VALID,1007.44,VALID,0,VALID,104,VALID,0,VALID,23.733,VALID,87,VALID,0.533594,
2012-12-31, 03:17:05,VALID,1007.42,VALID,0,VALID,104,VALID,0,VALID,23.694,VALID,88,VALID,1.03555,
2012-12-31, 03:18:05,VALID,1007.42,VALID,0,VALID,104,VALID,0,VALID,23.694,VALID,75,VALID,0.615625,
2012-12-31, 03:19:05,VALID,1007.37,VALID,0,VALID,104,VALID,0,VALID,23.6745,VALID,75,VALID,0.466016,
2012-12-31, 03:20:05,VALID,1007.38,VALID,0,VALID,104,VALID,0,VALID,23.6745,VALID,72,VALID,0.762109,
2012-12-31, 03:21:05,VALID,1007.41,VALID,0,VALID,104,VALID,0,VALID,23.655,VALID,77,VALID,1.03906,
2012-12-31, 03:22:05,VALID,1007.38,VALID,0,VALID,104,VALID,0,VALID,23.655,VALID,79,VALID,0.736719,
2012-12-31, 03:23:05,VALID,1007.39,VALID,0,VALID,104,VALID,0,VALID,23.655,VALID,53,VALID,1.13398,
2012-12-31, 03:24:05,VALID,1007.39,VALID,0,VALID,104,VALID,0,VALID,23.6568,VALID,63,VALID,0.682031,
2012-12-31, 03:25:05,VALID,1007.38,VALID,0,VALID,104,VALID,0,VALID,23.6161,VALID,56,VALID,0.852344,
2012-12-31, 03:26:05,VALID,1007.36,VALID,0,VALID,104,VALID,0,VALID,23.6356,VALID,53,VALID,0.857031,
2012-12-31, 03:27:05,VALID,1007.31,VALID,0,VALID,104,VALID,0,VALID,23.5753,VALID,80,VALID,0.919531,
2012-12-31, 03:28:04,VALID,1007.35,VALID,0,VALID,104,VALID,0,VALID,23.6161,VALID,70,VALID,0.885547,
2012-12-31, 03:29:04,VALID,1007.32,VALID,0,VALID,104,VALID,0,VALID,23.5966,VALID,74,VALID,1.17305,
2012-12-31, 03:30:04,VALID,1007.31,VALID,0,VALID,104,VALID,0,VALID,23.5966,VALID,74,VALID,0.625391,
2012-12-31, 03:31:04,VALID,1007.28,VALID,0,VALID,104,VALID,0,VALID,23.5966,VALID,102,VALID,0.478125,
2012-12-31, 03:32:04,VALID,1007.26,VALID,0,VALID,104,VALID,0,VALID,23.6161,VALID,75,VALID,0.800781,
2012-12-31, 03:33:04,VALID,1007.25,VALID,0,VALID,104,VALID,0.112112,VALID,23.5966,VALID,96,VALID,0.699219,
2012-12-31, 03:34:04,VALID,1007.21,VALID,0,VALID,104,VALID,0,VALID,23.5966,VALID,89,VALID,0.501172,
2012-12-31, 03:35:04,VALID,1007.2,VALID,0,VALID,104,VALID,0,VALID,23.5771,VALID,102,VALID,0.710938,
2012-12-31, 03:36:04,VALID,1007.21,VALID,0,VALID,104,VALID,0,VALID,23.5966,VALID,104,VALID,0.559375,
2012-12-31, 03:37:04,VALID,1007.16,VALID,0,VALID,104,VALID,0,VALID,23.5576,VALID,91,VALID,0.528125,
2012-12-31, 03:38:04,VALID,1007.17,VALID,0,VALID,104,VALID,0,VALID,23.5771,VALID,76,VALID,1.00234,
2012-12-31, 03:39:04,VALID,1007.17,VALID,0,VALID,104,VALID,0,VALID,23.5381,VALID,96,VALID,0.887891,
2012-12-31, 03:40:04,VALID,1007.2,VALID,0,VALID,104,VALID,0,VALID,23.5576,VALID,95,VALID,0.354297,
2012-12-31, 03:41:04,VALID,1007.2,VALID,0,VALID,104,VALID,0,VALID,23.5771,VALID,92,VALID,0.433203,
2012-12-31, 03:42:04,VALID,1007.19,VALID,0,VALID,104,VALID,0,VALID,23.5576,VALID,75,VALID,0.851172,
2012-12-31, 03:43:04,VALID,1007.17,VALID,0,VALID,104,VALID,0,VALID,23.5771,VALID,67,VALID,0.623438,
2012-12-31, 03:44:04,VALID,1007.16,VALID,0,VALID,104,VALID,0,VALID,23.5169,VALID,54,VALID,0.714063,
2012-12-31, 03:45:04,VALID,1007.14,VALID,0,VALID,104,VALID,0,VALID,23.5363,VALID,53,VALID,0.578516,
2012-12-31, 03:46:04,VALID,1007.15,VALID,0,VALID,104,VALID,0.112112,VALID,23.5186,VALID,54,VALID,0.330859,
2012-12-31, 03:47:04,VALID,1007.16,VALID,0,VALID,104,VALID,0,VALID,23.5186,VALID,47,VALID,0.464063,
2012-12-31, 03:48:04,VALID,1007.14,VALID,0,VALID,104,VALID,0,VALID,23.5186,VALID,47,VALID,0.0285156,
2012-12-31, 03:49:04,VALID,1007.17,VALID,0,VALID,104,VALID,0,VALID,23.5186,VALID,47,VALID,0,
2012-12-31, 03:50:04,VALID,1007.12,VALID,0,VALID,104,VALID,0,VALID,23.4992,VALID,47,VALID,0,
2012-12-31, 03:51:04,VALID,1007.11,VALID,0,VALID,104,VALID,0,VALID,23.4797,VALID,47,VALID,0.0367187,
2012-12-31, 03:52:04,VALID,1007.1,VALID,0,VALID,104,VALID,0,VALID,23.4602,VALID,47,VALID,0,
2012-12-31, 03:53:04,VALID,1007.1,VALID,0,VALID,104,VALID,0,VALID,23.4992,VALID,47,VALID,0.341406,
2012-12-31, 03:54:04,VALID,1007.08,VALID,0,VALID,104,VALID,0,VALID,23.4797,VALID,47,VALID,0.113281,